PSLV R/B, 43287

Orbit data source: Space-Track

PSLV R/B, 43287 is space debris in HEO originally from a launch on Wed, 11 Apr 2018 UTC launched from the Sirharikota (SRI). Debris objects in space refer to the collection of defunct objects orbiting the Earth. Examples of debris include non-operational satellites, rocket bodies, and fragments generated from explosions, collisions, or faulty payload assembly.

Loading next visibility...
PSLV R/B details
Identifier
43287, 2018-035B
Orbit
HEO
Last TLE update22 hours ago
Origin
Flag of INISRO (IN / IND)
ManufacturerVSSC/LPSC
MissionSpacecraft
Bus & MotorPS-4, Unknown motor
Mass920 kg wet, 920 kg dry
Launch date (UTC)
2018-04-11 (7 years ago)
Launch vehicleUnknown
Launch site
Sirharikota (SRI)
Object type
Payload
Rocket body
Debris
Shape & HBRCyl + Cyl + 2 Nozzle, 3.238 m
Radar Cross Section6.185 m², Large (>1 m²)

Expand to show TLE details & history

TLE from 22 hours ago
0 PSLV R/B
1 43287U 18035B   25043.76016002  .00007833  00000-0  10811-2 0  9991
2 43287  18.9863 189.9808 5658740  54.9370 345.8650  4.57835805103580
Epoch: 2025-02-12T18:14Z
Definitive object data (Epoch: 2025-02-12T18:14:37.825Z)
Latitude0.00002°
Longitude133.22961°
Altitude1,487.344 km
Speed8.679 km/s
True Right ascension12h 39m 43s
True Declination0° 00' 00"
Sunlit
Object was in full shadow at TLE epoch
Visualization TLE readout
Latitude-3.88267°
Longitude-36.29667°
Altitude11,057.375 km
Speed4.439 km/s
Apparent Right ascension02h 23m 05s
Apparent Declination-15° 53' 40"
Sunlit
Object is in daylight
Visualization observer readout
Local Sidereal Time19:03:56
Azimuth90.073° ESE
Elevation-25.178°
Doppler factor1
Orbital elements
Apogee altitude17,618.004 km
Perigee altitude274.601 km
Semi-major axis15,324.439 km
Eccentricity0.565874
Inclination18.9863°
RAAN189.9808°
Arg. of periapsis54.937°
True anomaly304.96777°
Mean anomaly345.865°
Eccentric anomaly329.32353°
Mean motion1.14411 °/min
BSTAR0.0010811
Orbital period314.66 mins
Loading maneuver chart data...
Loading historical data...
Loading historical data...
Loading historical data...
Loading historical data...
Loading historical data...
Loading historical data...
Loading historical data...
Other satellites on launch #35 in the year 2018 (2018-04-11 UTC)

PSLV R/B Visibility forecast

Observer location: undefined°, undefined

Span
Click to sort rows by Start time (UTC) header in descending order
Start Az.
Max El. time (UTC)
Max El. Az.
Max El.
End time (UTC)
End Az.
133 mins2025-02-13 20:59:35.080Z231.001° WSW2025-02-13 21:18:35.080Z180.216° SSW25.604°2025-02-13 23:12:35.080Z141.708° SSE
|